Weather Roundup
Issued by NWS Springfield, MO

Home | Current Version | Previous Version | Text Only | Print | Product List | Glossary On
Versions: 1 2 3 4 5 6 7 8 9 10 11 12 13 14 15 16 17 18 19 20 21 22 23 24 25 26 27 28 29 30 31 32 33 34 35 36 37 38 39 40 41 42 43 44 45 46 47 48 49 50
000
NZUS99 KSGF 302307
HRRSGF

HOURLY WEATHER
NATIONAL WEATHER SERVICE SPRINGFIELD MO
500 PM CST FRI JAN 30 2015

......SGF CWA......

CITY           SKY/WX    TMP DP  RH WIND       PRES   REMARKS
SPRINGFIELD    PTCLDY    46  13  26 CALM      30.40F
JOPLIN         MOCLDY    45  23  42 CALM      30.42F
WEST PLAINS    CLOUDY    46  14  27 E3        30.42F
ROLLA          PTCLDY    38  18  44 CALM      30.41F
OSAGE BEACH    MOCLDY    41  16  36 SW5       30.44F
BRANSON        MOCLDY    46  16  29 E5        30.42S

......SURROUNDING SGF CWA......

CITY           SKY/WX    TMP DP  RH WIND       PRES   REMARKS
CHANUTE        CLOUDY    42  23  46 SE5       30.42F
PARSONS        CLOUDY    43  23  45 CALM      30.44S
COFFEYVILLE    CLOUDY    44  25  47 NE5       30.43S
EMPORIA        CLOUDY    40  23  50 S7        30.39F
GROVE OK       CLOUDY    46  25  42 CALM      30.43S
ROGERS AR      MOCLDY    45  21  38 SE3       30.40F
SILOAM SPRINGS CLOUDY    46  18  31 CALM      30.42S
HARRISON AR    CLEAR     43  18  36 S5        30.41S
NEAR YELLVILLE CLEAR     46  14  27 CALM      30.43S

......KANSAS AND MISSOURI......

CITY           SKY/WX    TMP DP  RH WIND       PRES   REMARKS
KANSAS CTY INT CLOUDY    37  19  48 SE5       30.41F WCI  33
DOWNTOWN KC    CLOUDY    40  17  39 E7        30.41F
COLUMBIA       MOCLDY    36  18  48 W5        30.43F WCI  32
SEDALIA        MOCLDY    38  19  46 CALM      30.44F
ST JOSEPH      MOCLDY    36  20  52 S7        30.41F WCI  30
ST LOUIS       MOCLDY    37  18  46 NW5       30.46F WCI  33
SPIRIT OF STL  PTCLDY    34  20  56 CALM      30.45F
KIRKSVILLE     PTCLDY    33  18  53 S3        30.43F
WICHITA        CLOUDY    42  25  50 S7        30.39F
TOPEKA         CLOUDY    41  21  44 S7        30.41F
OLATHE         CLOUDY    38  21  50 S6        30.41F WCI  33

......TENNESSEE......

CITY           SKY/WX    TMP DP  RH WIND       PRES   REMARKS
MEMPHIS        PTCLDY    47  21  35 NE7       30.42F
NASHVILLE      PTCLDY    41  19  41 N8        30.43S

......ARKANSAS.......

CITY           SKY/WX    TMP DP  RH WIND       PRES   REMARKS
FAYETTEVILLE   MOCLDY    47  23  38 CALM      30.39F
FT SMITH       MOCLDY    49  22  34 NE8       30.41F
LITTLE ROCK    MOCLDY    50  23  34 E6        30.43F

......OKLAHOMA.......

CITY           SKY/WX    TMP DP  RH WIND       PRES   REMARKS
TULSA          CLOUDY    48  21  34 VRB3      30.41S
PONCA CITY     CLOUDY    46  23  40 NE5       30.40F
MCALESTER      MOCLDY    52  27  38 N5        30.38F
OKLAHOMA CITY  CLOUDY    47  23  38 NE7       30.37S

......IOWA............

CITY           SKY/WX    TMP DP  RH WIND       PRES   REMARKS
DES MOINES     MOCLDY    35  13  40 S8        30.39F WCI  29
QUAD CITIES    CLEAR     28  16  60 SW5       30.44F WCI  23

......ILLINOIS........

CITY           SKY/WX    TMP DP  RH WIND       PRES   REMARKS
QUINCY         CLEAR     32  14  47 SW5       30.44F WCI  27
CHICAGO        CLEAR     27   9  46 W7        30.42F WCI  19



USA.gov is the U.S. government's official web portal to all federal, state and local government web resources and services.